Address 0x68902b9435a2e483acc890daa53aa6ce888be58b

 
 
Txn Hash Method
Block
From
To
Value [Txn Fee]
0xf50af01bb9e084cbf44e45d4de75fad803176f0e9675fcbfff8c7d911e7d66a9Fight130139172021-11-28 3:49:361 hr 36 mins ago0x68902b9435a2e483acc890daa53aa6ce888be58bOUT 0xde9ffb228c1789fef3f08014498f2b16c57db8550 BNB0.00065017
0xb1787946dced432afaf1c0a8902e04f323b4e219942f6db5e36ac97b4f4c9f4cFight130139052021-11-28 3:49:001 hr 37 mins ago0x68902b9435a2e483acc890daa53aa6ce888be58bOUT 0xde9ffb228c1789fef3f08014498f2b16c57db8550 BNB0.00065011
0x4cd294193bb3cca87c8ea5e53bfd4a0687886953405b1087088c4274edeb5188Fight130130052021-11-28 3:01:512 hrs 24 mins ago0x68902b9435a2e483acc890daa53aa6ce888be58bOUT 0xde9ffb228c1789fef3f08014498f2b16c57db8550 BNB0.00072511
0x68e68b314d13a55d02ea5c1e995911f0def29bc40903ca7728042ecdfbe67a95Un Lock Level130127432021-11-28 2:47:142 hrs 38 mins ago0x68902b9435a2e483acc890daa53aa6ce888be58bOUT 0xde9ffb228c1789fef3f08014498f2b16c57db8550 BNB0.000511245
0x70c334bc7ed497f361907865d9421a0241b30cfc12bd45f8bfbe943d01b360d8Un Lock Level130127092021-11-28 2:45:322 hrs 40 mins ago0x68902b9435a2e483acc890daa53aa6ce888be58bOUT 0xde9ffb228c1789fef3f08014498f2b16c57db8550 BNB0.000511185
0xb42e18a6e2781ed4b20710d376f54ffee135410c45257ba3e6aa6ec421b6c81cFight130126222021-11-28 2:41:022 hrs 45 mins ago0x68902b9435a2e483acc890daa53aa6ce888be58bOUT 0xde9ffb228c1789fef3f08014498f2b16c57db8550 BNB0.00076938
0x4d6f93a9b5242d61f50324acaa3fc169fcda289e4b55c8c884b59f89930b0d6fFight130126022021-11-28 2:39:562 hrs 46 mins ago0x68902b9435a2e483acc890daa53aa6ce888be58bOUT 0xde9ffb228c1789fef3f08014498f2b16c57db8550 BNB0.00072517
0x0ee31ee0c869d9ee31e8de94d2347d0855a8d44660d5e8c84f713701a8cee130Fight130125852021-11-28 2:38:552 hrs 47 mins ago0x68902b9435a2e483acc890daa53aa6ce888be58bOUT 0xde9ffb228c1789fef3f08014498f2b16c57db8550 BNB0.00076932
0x24fe9d356225f6533210cc6e1d26a77fe1c730b0986e5e15e16118893a6562ebFight130125612021-11-28 2:37:292 hrs 48 mins ago0x68902b9435a2e483acc890daa53aa6ce888be58bOUT 0xde9ffb228c1789fef3f08014498f2b16c57db8550 BNB0.00072511
0xa4fa434e5a79c672c55302892fcea86a88c4ae8883b88a5210c0e8665c351309Fight130093992021-11-27 23:45:355 hrs 40 mins ago0x68902b9435a2e483acc890daa53aa6ce888be58bOUT 0xde9ffb228c1789fef3f08014498f2b16c57db8550 BNB0.00058712
0xcf319d4e6befcd7fcf8338c5004eebfa48c1001122a13c8197f48ee57dae99a9Fight130093892021-11-27 23:45:005 hrs 41 mins ago0x68902b9435a2e483acc890daa53aa6ce888be58bOUT 0xde9ffb228c1789fef3f08014498f2b16c57db8550 BNB0.00065017
0x724e229b8580954a08e4c4ba3f592e87d4c3b7f81df245522467e0b4145f1878Fight130093802021-11-27 23:44:305 hrs 41 mins ago0x68902b9435a2e483acc890daa53aa6ce888be58bOUT 0xde9ffb228c1789fef3f08014498f2b16c57db8550 BNB0.00065017
0xa1419191a2a3e79301d5ef166f788d173843c63b8756866b34a96dba8d661283Fight130093602021-11-27 23:43:305 hrs 42 mins ago0x68902b9435a2e483acc890daa53aa6ce888be58bOUT 0xde9ffb228c1789fef3f08014498f2b16c57db8550 BNB0.00065017
0x7bdbd51ebc1eea021b371f7b7df0604345c5415f3f83f2591f77a15c3aae1cbfFight130093522021-11-27 23:43:065 hrs 42 mins ago0x68902b9435a2e483acc890daa53aa6ce888be58bOUT 0xde9ffb228c1789fef3f08014498f2b16c57db8550 BNB0.00058712
0x3477527e44fb3fe1d3aa07e9066d82ed3d33eb02cb332221ee5d0d256b8fa1f5Fight130091872021-11-27 23:34:435 hrs 51 mins ago0x68902b9435a2e483acc890daa53aa6ce888be58bOUT 0xde9ffb228c1789fef3f08014498f2b16c57db8550 BNB0.00058712
0x9af8909390f74629eb81f5bf816b4193fcc30e0e749663a9f533fb535f499f75Un Lock Level130091642021-11-27 23:33:345 hrs 52 mins ago0x68902b9435a2e483acc890daa53aa6ce888be58bOUT 0xde9ffb228c1789fef3f08014498f2b16c57db8550 BNB0.000511245
0x67ee8e9faf2a346df57d75e10005b339a5e29d1f7f35f8e730ddef6fa3a8922aFight130091422021-11-27 23:32:285 hrs 53 mins ago0x68902b9435a2e483acc890daa53aa6ce888be58bOUT 0xde9ffb228c1789fef3f08014498f2b16c57db8550 BNB0.00076938
0xd7a90ff7b7858bf92b6c950f0390a0ff237c9e2c2605c71fd8f1a9f3939ba116Fight130091302021-11-27 23:31:525 hrs 54 mins ago0x68902b9435a2e483acc890daa53aa6ce888be58bOUT 0xde9ffb228c1789fef3f08014498f2b16c57db8550 BNB0.00065017
0x61504d06a591cfad1afb5b89542f8ce69588c877fcd0fa11789fe078e6e68a4fFight130091072021-11-27 23:30:435 hrs 55 mins ago0x68902b9435a2e483acc890daa53aa6ce888be58bOUT 0xde9ffb228c1789fef3f08014498f2b16c57db8550 BNB0.00058712
0x09d2564356f2ad402eb149f2e3d911bfa48d992b80d23895b2320f7e718069a5Fight130090722021-11-27 23:28:585 hrs 57 mins ago0x68902b9435a2e483acc890daa53aa6ce888be58bOUT 0xde9ffb228c1789fef3f08014498f2b16c57db8550 BNB0.00065017
0x5d038b81693c10b46d714fbff67ce8f8633e5a98a1eaec95cd0137b3d582f5aeSwap130090372021-11-27 23:27:115 hrs 58 mins ago0x68902b9435a2e483acc890daa53aa6ce888be58bOUT Metamask: Swap Router0 BNB0.00145918
0x10db09f4d6834ea317440c2ef312754b34a25e30cf73cb5586a335903523da68Fight130089972021-11-27 23:25:116 hrs ago0x68902b9435a2e483acc890daa53aa6ce888be58bOUT 0xde9ffb228c1789fef3f08014498f2b16c57db8550 BNB0.00065011
0x8a537cc62a677782488c85d939485720edf040067efd2eb1cc50fe32aebfcef1Fight130089802021-11-27 23:24:206 hrs 1 min ago0x68902b9435a2e483acc890daa53aa6ce888be58bOUT 0xde9ffb228c1789fef3f08014498f2b16c57db8550 BNB0.00065011
0x23249d10548788a89c8177efb25bf4a3d7185caa24d3c78164ffa9a966b72a98Fight130089722021-11-27 23:23:566 hrs 2 mins ago0x68902b9435a2e483acc890daa53aa6ce888be58bOUT 0xde9ffb228c1789fef3f08014498f2b16c57db8550 BNB0.00058706
0xd37a47d5aeb565e18d854b8f57e763c659de5e9478e0e87fab2b22620bca5e18Fight130089652021-11-27 23:23:356 hrs 2 mins ago0x68902b9435a2e483acc890daa53aa6ce888be58bOUT 0xde9ffb228c1789fef3f08014498f2b16c57db8550 BNB0.00058706
[ Download CSV Export 
Latest 7 internal transactions
Parent Txn Hash Block From To Value
0x5d038b81693c10b46d714fbff67ce8f8633e5a98a1eaec95cd0137b3d582f5ae130090372021-11-27 23:27:115 hrs 58 mins ago 0xc590175e458b83680867afd273527ff58f74c02b0x68902b9435a2e483acc890daa53aa6ce888be58b0.016612734211282658 BNB
0xc63a81323402759ddd4e60e82d296ba4d8843112af6a00528161b604fe84e87f129366482021-11-25 5:28:012 days 23 hrs ago 0xde8c58d082d39d04dc2e5241a3a65911454674cd0x68902b9435a2e483acc890daa53aa6ce888be58b0.1383864768 BNB
0xcd3825d450996bee9f417f1435e816d46ae55d4453721652891a633e3b9c198d128794122021-11-23 3:27:245 days 1 hr ago 0xde8c58d082d39d04dc2e5241a3a65911454674cd0x68902b9435a2e483acc890daa53aa6ce888be58b0.22764017136 BNB
0xb4879a087019693b1cae2dcd67fff57c64593837d7cefaecfe4cce303a1fccb3123404272021-11-03 19:36:4724 days 9 hrs ago 0xc590175e458b83680867afd273527ff58f74c02b0x68902b9435a2e483acc890daa53aa6ce888be58b0.012306175493394949 BNB
0xe7c893f3b122dd27172f75f20d317c6a9f10e4bb25b93dc7afc0e372d570568e123401342021-11-03 19:22:0724 days 10 hrs ago 0xc590175e458b83680867afd273527ff58f74c02b0x68902b9435a2e483acc890daa53aa6ce888be58b0.006346708549311826 BNB
0xebe47770a233384f3a1fe699cddd9a2dbb65c40c6c2b8aec3139bc57f039e365123285392021-11-03 9:04:1324 days 20 hrs ago 0xc590175e458b83680867afd273527ff58f74c02b0x68902b9435a2e483acc890daa53aa6ce888be58b0.01313979947419102 BNB
0x29129b2c94c7a65d5d7ee12d8d41eb588df07fda42bc508d0ac7cadd5451ff99122695172021-11-01 6:15:1726 days 23 hrs ago 0xc590175e458b83680867afd273527ff58f74c02b0x68902b9435a2e483acc890daa53aa6ce888be58b0.003629429329046331 BNB
[ Download CSV Export 
Loading

Contract Name:
0 BNB

Compiler Version
0

Optimization Enabled:
0 BNB

Other Settings:
-NA-
Block Transaction Gas Used Reward
Age Block Fee Address BC Fee Address Voting Power Jailed Incoming
Block Uncle Number Difficulty Gas Used Reward
Loading
Loading
Make sure to use the "Vote Down" button for any spammy posts, and the "Vote Up" for interesting conversations.